Weather History for Sault Ste Marie, MI

Change the Weather History Date:

Thursday, October 4, 2012

  Actual Average Record
Temperature  
Mean Temperature 62 °F 50 °F  
Max Temperature 70 °F 59 °F 82 °F (1922)
Min Temperature 54 °F 42 °F 25 °F (1980)
Degree Days  
Heating Degree Days 3 15  
Month to date heating degree days 33 58  
Since 1 July heating degree days 361 459  
Cooling Degree Days 0 0  
Month to date cooling degree days 0 0  
Year to date cooling degree days 402 195  
Growing Degree Days 12 (Base 50)    
Moisture  
Dew Point 53 °F    
Average Humidity 73    
Maximum Humidity 93    
Minimum Humidity 53    
Precipitation  
Precipitation 0.17 in 0.13 in 1.26 in (2002)
Month to date precipitation 0.20 0.52  
Year to date precipitation 19.18 23.51  
Snow  
Snow 0.00 in 0.00 in 0.30 in (1964)
Month to date snowfall 0.0 0.0  
Since 1 July snowfall 0.0 T  
Snow Depth 0.00 in    
Sea Level Pressure  
Sea Level Pressure 29.91 in    
Wind  
Wind Speed 5 mph (SW)    
Max Wind Speed 16 mph    
Max Gust Speed 21 mph    
Visibility 7 miles    
Events Rain    
T = Trace of Precipitation, MM = Missing Value Source: NWS Daily Summary

Daily Weather History Graph

Daily Weather History Graph

Search for Another Location

Airport:

Trip Planner

Search our weather history database for the weather conditions in past years. The results will help you decide how hot, cold, wet, or windy it might be!

Date:

Astronomy

Oct. 04, 2012 Rise Set
Actual Time 7:40 AM EDT 7:10 PM EDT
Civil Twilight 7:10 AM EDT 7:40 PM EDT
Nautical Twilight 6:35 AM EDT 8:15 PM EDT
Astronomical Twilight 6:00 AM EDT 8:50 PM EDT
Moon 9:29 PM EDT (10/4) 12:12 PM EDT (10/4)
Length of Visible Light 12h 29m
Length of Day
11h 29m
Waning Gibbous, 82% of the Moon is Illuminated
Oct 4
Waning Gibbous
Oct 8
Last Quarter
Oct 15
New
Oct 21
First Quarter
Oct 29
Full

Hourly Weather History & Observations

Time (EDT) Temp. Dew Point Humidity Pressure Visibility Wind Dir Wind Speed Gust Speed Precip Events Conditions
12:55 AM 57.0 °F 54.0 °F 89% 29.99 in 10.0 mi Calm Calm - 0.02 in   Overcast
1:55 AM 57.0 °F 54.0 °F 89% 29.99 in 6.0 mi Calm Calm - N/A   Overcast
2:17 AM 55.9 °F 53.1 °F 90% 29.99 in 6.0 mi Calm Calm - 0.00 in   Overcast
2:55 AM 57.0 °F 54.0 °F 89% 29.97 in 7.0 mi Calm Calm - 0.00 in   Overcast
3:03 AM 57.0 °F 54.0 °F 89% 29.97 in 7.0 mi Calm Calm - N/A   Overcast
3:55 AM 57.0 °F 54.0 °F 89% 29.96 in 2.0 mi Calm Calm - 0.00 in Rain Light Rain
4:04 AM 57.0 °F 54.0 °F 89% 29.96 in 1.8 mi ENE 3.5 mph - 0.01 in Rain Light Rain
4:11 AM 57.0 °F 54.0 °F 89% 29.96 in 2.0 mi Calm Calm - 0.01 in Rain Light Rain
4:29 AM 57.0 °F 54.0 °F 89% 29.96 in 2.5 mi Calm Calm - 0.02 in Rain Light Rain
4:55 AM 57.0 °F 55.0 °F 93% 29.95 in 2.5 mi Calm Calm - 0.02 in Rain Light Rain
5:02 AM 57.0 °F 55.0 °F 93% 29.95 in 2.5 mi Calm Calm - 0.01 in Rain Light Rain
5:18 AM 57.0 °F 55.0 °F 93% 29.95 in 2.0 mi Calm Calm - 0.01 in Rain Light Rain
5:28 AM 55.9 °F 55.0 °F 97% 29.95 in 1.5 mi Calm Calm - 0.02 in Rain Light Rain
5:55 AM 57.0 °F 55.0 °F 93% 29.94 in 2.0 mi Calm Calm - 0.04 in Rain Light Rain
6:17 AM 57.0 °F 55.0 °F 93% 29.94 in 4.0 mi NNE 3.5 mph - 0.02 in Rain Light Rain
6:36 AM 57.0 °F 55.0 °F 93% 29.94 in 6.0 mi Calm Calm - 0.02 in   Overcast
6:46 AM 57.0 °F 55.0 °F 93% 29.94 in 5.0 mi Calm Calm - 0.02 in Rain Rain
6:55 AM 57.0 °F 55.0 °F 93% 29.93 in 2.5 mi Calm Calm - 0.04 in Rain Rain
7:08 AM 55.9 °F 54.0 °F 93% 29.93 in 2.5 mi Calm Calm - 0.05 in Rain Rain
7:18 AM 55.9 °F 54.0 °F 93% 29.93 in 4.0 mi NE 3.5 mph - 0.06 in Rain Light Rain
7:55 AM 57.0 °F 54.0 °F 89% 29.93 in 9.0 mi Calm Calm - 0.07 in   Overcast
8:55 AM 55.9 °F 52.0 °F 87% 29.93 in 10.0 mi North 4.6 mph - N/A   Overcast
9:29 AM 57.0 °F 53.1 °F 87% 29.92 in 10.0 mi North 5.8 mph - N/A   Overcast
9:55 AM 57.9 °F 52.0 °F 81% 29.91 in 10.0 mi North 5.8 mph - N/A   Overcast
10:55 AM 60.1 °F 52.0 °F 75% 29.92 in 10.0 mi West 3.5 mph - N/A   Partly Cloudy
11:55 AM 62.1 °F 53.1 °F 72% 29.91 in 10.0 mi SW 4.6 mph - N/A   Mostly Cloudy
12:41 PM 64.0 °F 53.1 °F 67% 29.91 in 10.0 mi West 5.8 mph - N/A   Scattered Clouds
12:55 PM 64.0 °F 50.0 °F 60% 29.90 in 10.0 mi WSW 9.2 mph - N/A   Partly Cloudy
1:50 PM 66.2 °F 53.6 °F 64% 29.90 in 10.0 mi Variable 5.8 mph - N/A   Mostly Cloudy
1:55 PM 66.9 °F 53.1 °F 61% 29.89 in 10.0 mi WSW 8.1 mph - N/A   Mostly Cloudy
2:15 PM 68.0 °F 51.1 °F 55% 29.89 in 10.0 mi SSW 9.2 mph - N/A   Scattered Clouds
2:55 PM 68.0 °F 51.1 °F 55% 29.88 in 10.0 mi Variable 3.5 mph - N/A   Clear
3:55 PM 69.1 °F 51.1 °F 53% 29.85 in 10.0 mi South 6.9 mph - N/A   Clear
4:55 PM 69.1 °F 52.0 °F 54% 29.83 in 10.0 mi South 10.4 mph - N/A   Mostly Cloudy
5:55 PM 68.0 °F 52.0 °F 56% 29.84 in 10.0 mi Variable 4.6 mph - N/A   Clear
6:55 PM 64.9 °F 52.0 °F 63% 29.82 in 10.0 mi SSE 9.2 mph - N/A   Mostly Cloudy
7:55 PM 63.0 °F 55.0 °F 75% 29.82 in 10.0 mi SSE 11.5 mph - 0.00 in Rain Light Rain
8:55 PM 61.0 °F 55.0 °F 81% 29.82 in 10.0 mi SSE 5.8 mph - 0.00 in   Overcast
9:55 PM 60.1 °F 54.0 °F 80% 29.81 in 10.0 mi South 8.1 mph - N/A   Partly Cloudy
10:55 PM 60.1 °F 52.0 °F 75% 29.79 in 10.0 mi SSW 11.5 mph - N/A   Partly Cloudy
11:55 PM 57.9 °F 50.0 °F 75% 29.80 in 10.0 mi WNW 12.7 mph 20.7 mph N/A   Scattered Clouds